[[{"header":{"parameterUnit":"m.s-1","parameterCategory":2,"la1":30.2991,"la2":30.254,"lo1":-89.0895,"lo2":-89.0444,"dy":0.0017,"dx":0.0017,"nx":28,"ny":28,"refTime":"2024-10-22T03:00:00:Z","depth":"0","parameterNumber":2,"parameterNumberName":"U-component_of_CURRENTS"},"data":[0,0,0,0,0,0,0,0,0,0,0,0,0,0,0,0,0,0,0,0,0,0,0,0,0,0,0,0,0,0,0,0,0,0,0,0,0,0,0,0,0,0,0,0,0,0,0,0,0,0,0,0,0,0,0,0,0,0,0.2186,0.2186,0,0.2115,0.2114,0.2113,0.207,0.207,0.207,0.2071,0.1892,0.1888,0.1883,0,0,0,0,0,0,0,0,0,0,0,0,0,0.227,0.2269,0.2186,0.2185,0.2185,0.2115,0.2114,0.2113,0.207,0.207,0.2071,0.2071,0.1894,0.1888,0.1882,0,0,0,0,0,0,0,0,0,0,0,0,0,0.2218,0.2268,0.2186,0.2157,0.2154,0.2115,0.2114,0.2112,0.207,0.207,0.2071,0.2071,0.1896,0.1889,0.1882,0.1837,0,0,0.186,0.1857,0,0,0,0,0,0,0,0,0.2221,0.2214,0.2162,0.2159,0.2155,0.2104,0.2078,0.2016,0.207,0.21,0.2071,0.2071,0.1954,0.1942,0.1927,0.1828,0.1821,0.1859,0.1855,0.1852,0.185,0,0,0,0,0,0,0,0.2224,0.2217,0.2156,0.2161,0.2157,0.2142,0.2135,0.2066,0.2024,0.2097,0.2094,0.209,0.1951,0.1934,0.1922,0.1818,0.1859,0.1853,0.1849,0.1846,0.1697,0.1697,0,0,0,0,0,0,0.2238,0.2221,0.2158,0.2154,0.2191,0.2141,0.2132,0.2118,0.2027,0.2015,0.209,0.2089,0.1947,0.1931,0.1916,0.1874,0.1852,0.1845,0.1841,0.1697,0.1697,0.1697,0,0,0,0,0,0,0.224,0.2233,0.2161,0.2188,0.2178,0.214,0.2124,0.2117,0.2101,0.2023,0.2008,0.2082,0.1946,0.1926,0.1872,0.1866,0.1842,0.1835,0.1696,0.1697,0.1697,0.1778,0,0,0,0,0,0,0.2243,0.2234,0.2227,0.2189,0.2177,0.2137,0.2124,0.2116,0.2099,0.2096,0.2011,0.1995,0.1944,0.1884,0.1865,0.1855,0.183,0.1696,0.1696,0.1697,0.1775,0.1781,0.1786,0,0,0,0,0,0.2246,0.223,0.2227,0.2219,0.2169,0.2138,0.213,0.2102,0.2099,0.2088,0.2047,0.1998,0.1874,0.1878,0.1856,0.1844,0.1695,0.1696,0.1697,0.1772,0.178,0.1786,0,0,0,0,0,0,0.2252,0.2223,0.2219,0.2192,0.2171,0.2131,0.2116,0.2106,0.2066,0.2061,0.1997,0.1978,0.1931,0.1878,0.1884,0.1806,0.1777,0.1774,0.1842,0.1848,0.1854,0.1849,0.1824,0,0,0,0,0,0.2256,0.224,0.2213,0.2192,0.2182,0.2154,0.2139,0.2123,0.2085,0.2069,0.2017,0.1962,0.1916,0.1877,0.1826,0.1772,0.1751,0.1752,0.1758,0.1764,0.1746,0.1733,0.1737,0.17,0.17,0.17,0,0,0.2251,0.2235,0.2224,0.2194,0.2173,0.2148,0.2143,0.2119,0.21,0.2052,0.2008,0.1978,0.191,0.1866,0.1838,0.1818,0.177,0.1765,0.177,0.1748,0.1735,0.1738,0.1741,0.17,0.17,0.17,0,0,0.223,0.2222,0.22,0.2183,0.2159,0.2145,0.2143,0.211,0.2098,0.206,0.2034,0.201,0.1918,0.1886,0.1853,0.1855,0.1809,0.1835,0.1844,0.1834,0.1837,0.1839,0.185,0.1852,0.1828,0.1829,0.1829,0,0.222,0.2192,0.2189,0.2162,0.2146,0.2146,0.2118,0.2105,0.2062,0.2051,0.205,0.1969,0.1927,0.1879,0.1891,0.1866,0.1859,0.1827,0.1842,0.1844,0.1845,0.1855,0.1857,0.1833,0.1832,0.1832,0.1831,0,0.2181,0.216,0.2145,0.2115,0.2103,0.2079,0.2069,0.2061,0.2058,0.2043,0.2013,0.1981,0.1928,0.1926,0.1904,0.1887,0.1883,0.1864,0.1829,0.1854,0.1863,0.1863,0.1838,0.1837,0.1836,0.1835,0,0,0.2123,0.212,0.2108,0.2097,0.2077,0.206,0.2047,0.2027,0.2017,0.2002,0.1979,0.1948,0.1949,0.1914,0.19,0.1897,0.1927,0.1885,0.1882,0.1903,0.192,0.1914,0.1914,0.1913,0.1912,0.1912,0.1937,0,0.208,0.205,0.2054,0.2015,0.1994,0.2003,0.1989,0.1979,0.1979,0.1961,0.1956,0.1926,0.1938,0.1925,0.1928,0.1913,0.1924,0.1922,0.1884,0.1883,0.1881,0.1913,0.1876,0.1893,0.1937,0.1937,0.1937,0,0.2008,0.2008,0.198,0.1974,0.1964,0.1947,0.1938,0.1926,0.1919,0.1917,0.1908,0.1903,0.1895,0.1908,0.1906,0.1904,0.1918,0.1921,0.1922,0.1878,0.1876,0.1867,0.1891,0.1702,0.1937,0.1937,0.1937,0,0.1955,0.1936,0.1927,0.1918,0.192,0.191,0.1909,0.1906,0.1894,0.1888,0.1877,0.1875,0.1861,0.1877,0.1894,0.1899,0.1899,0.1902,0.1916,0.1917,0.1854,0.1849,0.1689,0.191,0.191,0.191,0.191,0,0.1889,0.1862,0.1904,0.189,0.187,0.1879,0.1854,0.1857,0.185,0.1824,0.1848,0.1824,0.1852,0.1856,0.1885,0.1898,0.1891,0.1918,0.1917,0.1885,0.1883,0.1688,0.1573,0.1911,0.1911,0.1911,0.1911,0,0.1805,0.1834,0.1814,0.1838,0.184,0.1821,0.1816,0.1799,0.1804,0.1772,0.1767,0.1777,0.1784,0.1822,0.1843,0.1874,0.1807,0.1905,0.1879,0.1874,0.1716,0.1608,0.1482,0.1459,0.1928,0.1928,0.1928,0,0.1761,0.1749,0.1777,0.1772,0.1777,0.1764,0.1751,0.1764,0.1748,0.1734,0.171,0.1718,0.1714,0.1758,0.1815,0.1873,0.1767,0.1873,0.1874,0.1692,0.1572,0.1533,0.1521,0.1841,0.184,0.1839,0.1839,0,0.1679,0.1696,0.1702,0.1708,0.1699,0.168,0.1667,0.1653,0.166,0.1645,0.1623,0.1623,0.1673,0.1699,0.1781,0.1822,0.1718,0.1863,0.1665,0.1475,0.1428,0.141,0.185,0.1833,0.1834,0.1834,0.1835,0.1835,0.162,0.1613,0.1641,0.1636,0.1628,0.1597,0.1566,0.1559,0.1535,0.1495,0.1533,0.1512,0.1564,0.1671,0.1691,0.1638,0.1661,0.1583,0.147,0.1453,0.14,0.184,0.1821,0.1822,0.1822,0.1823,0.1823,0,0.1557,0.1565,0.1564,0.1561,0.1536,0.1546,0.1509,0.1472,0.1434,0.1412,0.1398,0.1387,0.1391,0.1418,0.1396,0.1256,0.1283,0.1138,0.103,0.1047,0.1418,0.1379,0.1273,0.1273,0.1273,0.1273,0.1274,0.1274,0.1526,0.1513,0.1526,0.1483,0.1473,0.1411,0.1382,0.1327,0.1303,0.123,0.1192,0.1197,0.1102,0.0878,0.0726,0.074,0.0606,0.0573,0.0533,0.0692,0.0724,0.0754,0.069,0.0441,0.044,0.0231,0.0227,0.0225]},{"header":{"parameterUnit":"m.s-1","parameterCategory":2,"la1":30.2991,"la2":30.254,"lo1":-89.0895,"lo2":-89.0444,"dy":0.0017,"dx":0.0017,"nx":28,"ny":28,"refTime":"2024-10-22T03:00:00:Z","depth":"0","parameterNumber":3,"parameterNumberName":"V-component_of_CURRENTS"},"data":[0,0,0,0,0,0,0,0,0,0,0,0,0,0,0,0,0,0,0,0,0,0,0,0,0,0,0,0,0,0,0,0,0,0,0,0,0,0,0,0,0,0,0,0,0,0,0,0,0,0,0,0,0,0,0,0,0,0,-0.1205,-0.1206,0,-0.127,-0.127,-0.1271,-0.1289,-0.1288,-0.1288,-0.1288,-0.1293,-0.1294,-0.1294,0,0,0,0,0,0,0,0,0,0,0,0,0,-0.1089,-0.1091,-0.1205,-0.1206,-0.1207,-0.127,-0.127,-0.1271,-0.1289,-0.1288,-0.1288,-0.1288,-0.1293,-0.1294,-0.1294,0,0,0,0,0,0,0,0,0,0,0,0,0,-0.1144,-0.1091,-0.1205,-0.1224,-0.1227,-0.1269,-0.127,-0.1271,-0.1289,-0.1288,-0.1288,-0.1288,-0.1293,-0.1294,-0.1294,-0.1306,0,0,-0.1296,-0.1296,0,0,0,0,0,0,0,0,-0.1141,-0.1148,-0.122,-0.1223,-0.1226,-0.1272,-0.1231,-0.128,-0.1289,-0.1264,-0.1288,-0.1287,-0.1282,-0.1283,-0.1296,-0.1306,-0.1306,-0.1296,-0.1297,-0.1297,-0.1297,0,0,0,0,0,0,0,-0.1137,-0.1145,-0.123,-0.1221,-0.1225,-0.1227,-0.1234,-0.1241,-0.1272,-0.1266,-0.1268,-0.1277,-0.1283,-0.1295,-0.1296,-0.1307,-0.1296,-0.1297,-0.1297,-0.1297,-0.133,-0.133,0,0,0,0,0,0,-0.1132,-0.1142,-0.1228,-0.1232,-0.1183,-0.1229,-0.1237,-0.1256,-0.1274,-0.1277,-0.1277,-0.1278,-0.1294,-0.1295,-0.1296,-0.13,-0.1297,-0.1297,-0.1298,-0.1329,-0.133,-0.1331,0,0,0,0,0,0,-0.113,-0.114,-0.1225,-0.1188,-0.1199,-0.1232,-0.1253,-0.1258,-0.1272,-0.1283,-0.1284,-0.1287,-0.1294,-0.1295,-0.1309,-0.1301,-0.1298,-0.1298,-0.1329,-0.133,-0.133,-0.1316,0,0,0,0,0,0,-0.1126,-0.1139,-0.1149,-0.1188,-0.1201,-0.1252,-0.1254,-0.126,-0.1279,-0.128,-0.1291,-0.1292,-0.1294,-0.1309,-0.131,-0.1302,-0.1299,-0.1328,-0.1329,-0.133,-0.1315,-0.1316,-0.1316,0,0,0,0,0,-0.1122,-0.1142,-0.1149,-0.1159,-0.1215,-0.1253,-0.126,-0.128,-0.128,-0.129,-0.13,-0.1291,-0.1315,-0.131,-0.1311,-0.1303,-0.1328,-0.1329,-0.133,-0.1315,-0.1316,-0.1316,0,0,0,0,0,0,-0.1107,-0.1147,-0.1155,-0.119,-0.1218,-0.1256,-0.1269,-0.1282,-0.1299,-0.1296,-0.1302,-0.1304,-0.1311,-0.1316,-0.131,-0.1317,-0.1318,-0.132,-0.1307,-0.1307,-0.1307,-0.1291,-0.1299,0,0,0,0,0,-0.1106,-0.1127,-0.1166,-0.1193,-0.1206,-0.1236,-0.1253,-0.1266,-0.1289,-0.1297,-0.1305,-0.1312,-0.1318,-0.132,-0.1328,-0.1335,-0.1311,-0.1331,-0.1331,-0.1331,-0.1321,-0.1288,-0.1283,-0.1334,-0.1334,-0.1334,0,0,-0.1109,-0.1133,-0.1146,-0.1189,-0.1212,-0.1234,-0.1245,-0.1272,-0.1284,-0.1293,-0.1308,-0.1314,-0.1321,-0.1328,-0.1331,-0.133,-0.1304,-0.1333,-0.1332,-0.1322,-0.1288,-0.1283,-0.1278,-0.1335,-0.1335,-0.1335,0,0,-0.1124,-0.1145,-0.1165,-0.1185,-0.1217,-0.1235,-0.1242,-0.1277,-0.1284,-0.1304,-0.1308,-0.131,-0.1328,-0.1326,-0.1328,-0.1336,-0.1307,-0.1341,-0.1326,-0.1294,-0.1289,-0.1284,-0.1237,-0.1228,-0.134,-0.134,-0.134,0,-0.112,-0.1157,-0.1177,-0.1199,-0.1213,-0.1234,-0.1254,-0.1267,-0.1301,-0.1299,-0.1305,-0.1315,-0.1323,-0.1316,-0.1321,-0.1333,-0.1306,-0.1321,-0.1291,-0.1286,-0.1281,-0.1234,-0.1224,-0.1339,-0.1339,-0.1339,-0.1339,0,-0.1154,-0.1175,-0.1189,-0.1219,-0.1235,-0.1257,-0.1275,-0.1283,-0.129,-0.1297,-0.1293,-0.1303,-0.1304,-0.1308,-0.1318,-0.1292,-0.128,-0.1293,-0.1283,-0.1275,-0.1226,-0.1216,-0.1338,-0.1338,-0.1339,-0.1339,0,0,-0.1153,-0.1203,-0.1205,-0.1213,-0.1244,-0.126,-0.127,-0.1283,-0.1275,-0.1289,-0.1275,-0.1286,-0.128,-0.1282,-0.1287,-0.1262,-0.1207,-0.1263,-0.1262,-0.1203,-0.1119,-0.1064,-0.1048,-0.1213,-0.1212,-0.121,-0.1094,0,-0.1167,-0.1212,-0.123,-0.1252,-0.1267,-0.1276,-0.1282,-0.1287,-0.1284,-0.1273,-0.1264,-0.1256,-0.1273,-0.1266,-0.1244,-0.1219,-0.1182,-0.1236,-0.1147,-0.1144,-0.1086,-0.1035,-0.0958,-0.0844,-0.1084,-0.1082,-0.1081,0,-0.1178,-0.1208,-0.124,-0.1255,-0.1262,-0.1272,-0.1265,-0.1273,-0.1257,-0.125,-0.1233,-0.1227,-0.1197,-0.1212,-0.1142,-0.1175,-0.1143,-0.1119,-0.1114,-0.1059,-0.1071,-0.0896,-0.0817,-0.074,-0.1065,-0.1067,-0.1068,0,-0.1151,-0.1199,-0.1223,-0.1232,-0.1261,-0.1261,-0.127,-0.1261,-0.1252,-0.1227,-0.1205,-0.1179,-0.1151,-0.1113,-0.1071,-0.1102,-0.0979,-0.1017,-0.0931,-0.0927,-0.084,-0.083,-0.0663,-0.0953,-0.0953,-0.0954,-0.0954,0,-0.1144,-0.1149,-0.1211,-0.1218,-0.1225,-0.1246,-0.1233,-0.1233,-0.1218,-0.1191,-0.1187,-0.1149,-0.1124,-0.1061,-0.1036,-0.0933,-0.0946,-0.0901,-0.0885,-0.0833,-0.0825,-0.074,-0.0735,-0.0949,-0.095,-0.0951,-0.0952,0,-0.1086,-0.1135,-0.1149,-0.1196,-0.1207,-0.1204,-0.1215,-0.12,-0.1192,-0.1151,-0.114,-0.1104,-0.1023,-0.0978,-0.09,-0.0869,-0.0732,-0.0759,-0.069,-0.0668,-0.0532,-0.0531,-0.0371,-0.0343,-0.0639,-0.0637,-0.0635,0,-0.1058,-0.1067,-0.1123,-0.1132,-0.1148,-0.1158,-0.1159,-0.1177,-0.116,-0.1118,-0.1089,-0.1013,-0.0948,-0.0799,-0.0725,-0.0629,-0.062,-0.0504,-0.0555,-0.0479,-0.0466,-0.049,-0.0482,-0.043,-0.0427,-0.0424,-0.0422,0,-0.0993,-0.1016,-0.1039,-0.1076,-0.1088,-0.1092,-0.1099,-0.1088,-0.1092,-0.1051,-0.0985,-0.0933,-0.08,-0.0655,-0.053,-0.0478,-0.043,-0.0445,-0.0377,-0.0283,-0.0284,-0.0265,-0.0552,-0.0397,-0.04,-0.0401,-0.0403,-0.0404,-0.0934,-0.0941,-0.0992,-0.1013,-0.1029,-0.1024,-0.101,-0.1004,-0.0969,-0.0891,-0.088,-0.0751,-0.0587,-0.0405,-0.0348,-0.0156,-0.0255,-0.0111,-0.0111,-0.014,-0.0115,-0.034,-0.0171,-0.0172,-0.0173,-0.0174,-0.0175,0,-0.088,-0.0907,-0.0926,-0.096,-0.0959,-0.0983,-0.0968,-0.0937,-0.0879,-0.0782,-0.0703,-0.0463,-0.026,-0.0121,0.011,0.0183,0.0146,0.0214,0.0206,0.0197,0.0016,0.0022,0.0255,0.0255,0.0255,0.0255,0.0254,0.0254,-0.0855,-0.0875,-0.0901,-0.0898,-0.0908,-0.0889,-0.087,-0.0814,-0.0742,-0.0561,-0.0398,-0.0295,-0.0078,0.0269,0.0483,0.0484,0.049,0.0493,0.0458,0.0347,0.0316,0.0287,0.0296,0.0583,0.0583,0.0651,0.0652,0.0652]}],[{"header":{"parameterUnit":"m.s-1","parameterCategory":2,"la1":30.2991,"la2":30.254,"lo1":-89.0895,"lo2":-89.0444,"dy":0.0017,"dx":0.0017,"nx":28,"ny":28,"refTime":"2024-10-22T03:00:00:Z","depth":"2","parameterNumber":2,"parameterNumberName":"U-component_of_CURRENTS"},"data":[0,0,0,0,0,0,0,0,0,0,0,0,0,0,0,0,0,0,0,0,0,0,0,0,0,0,0,0,0,0,0,0,0,0,0,0,0,0,0,0,0,0,0,0,0,0,0,0,0,0,0,0,0,0,0,0,0,0,0.0981,0.0981,0,0.0953,0.0953,0.0952,0.0964,0.0965,0.0966,0.0966,0.0954,0.0953,0.0952,0,0,0,0,0,0,0,0,0,0,0,0,0,0.1056,0.1055,0.0981,0.0981,0.0981,0.0953,0.0953,0.0952,0.0964,0.0965,0.0966,0.0967,0.0954,0.0953,0.0952,0,0,0,0,0,0,0,0,0,0,0,0,0,0.1025,0.1054,0.0981,0.0984,0.0984,0.0953,0.0953,0.0952,0.0964,0.0965,0.0966,0.0967,0.0955,0.0953,0.0952,0.092,0,0,0.0947,0.0946,0,0,0,0,0,0,0,0,0.1026,0.1022,0.0984,0.0984,0.0984,0.0964,0.0975,0.0942,0.0963,0.0971,0.0966,0.0968,0.0958,0.0957,0.0948,0.0919,0.0919,0.0947,0.0946,0.0945,0.0945,0,0,0,0,0,0,0,0.1029,0.1023,0.0969,0.0983,0.0983,0.099,0.0987,0.0969,0.0958,0.097,0.0971,0.0969,0.0959,0.0949,0.0947,0.0919,0.0947,0.0946,0.0945,0.0944,0.1005,0.1008,0,0,0,0,0,0,0.1031,0.1025,0.097,0.0969,0.1009,0.0988,0.0984,0.0968,0.0958,0.0958,0.0968,0.0969,0.0951,0.0949,0.0947,0.1004,0.0945,0.0944,0.0943,0.1003,0.1006,0.1008,0,0,0,0,0,0,0.1033,0.1026,0.0972,0.0998,0.0992,0.0985,0.0968,0.0967,0.0987,0.0956,0.0956,0.0991,0.0952,0.0949,0.0973,0.1,0.0943,0.0942,0.1,0.1004,0.1007,0.1057,0,0,0,0,0,0,0.1035,0.1026,0.1025,0.0997,0.099,0.0971,0.0967,0.0966,0.0982,0.0985,0.0976,0.0974,0.0953,0.0975,0.0971,0.0997,0.0941,0.0996,0.1001,0.1006,0.1052,0.1062,0.107,0,0,0,0,0,0.1037,0.1027,0.1025,0.1019,0.0985,0.0971,0.0969,0.0968,0.0983,0.099,0.1003,0.0976,0.1003,0.0975,0.097,0.0996,0.0994,0.1,0.1006,0.1048,0.106,0.107,0,0,0,0,0,0,0.1058,0.1027,0.1024,0.1005,0.0999,0.0974,0.098,0.0985,0.0998,0.1012,0.0994,0.0993,0.1028,0.1012,0.0983,0.1035,0.1,0.1005,0.1034,0.1045,0.1054,0.1044,0.0939,0,0,0,0,0,0.1061,0.1049,0.1025,0.1015,0.1013,0.1005,0.1004,0.1006,0.1008,0.1016,0.1016,0.1027,0.1041,0.1045,0.1049,0.1063,0.1069,0.1085,0.1094,0.1102,0.1095,0.1141,0.1153,0.1027,0.1027,0.1027,0,0,0.1068,0.105,0.1044,0.102,0.1016,0.1013,0.1008,0.1015,0.1024,0.1011,0.104,0.1056,0.1056,0.1082,0.1097,0.1074,0.1149,0.1109,0.1115,0.1104,0.1148,0.116,0.1171,0.1031,0.103,0.103,0,0,0.1075,0.1061,0.1056,0.105,0.1047,0.1038,0.1049,0.1045,0.1058,0.1082,0.109,0.1128,0.1136,0.1144,0.1148,0.121,0.1199,0.1225,0.1251,0.1297,0.1307,0.1316,0.1362,0.1375,0.1225,0.1225,0.1225,0,0.1092,0.1072,0.1056,0.1053,0.1055,0.1055,0.1061,0.1064,0.1076,0.1092,0.1105,0.1159,0.1162,0.1194,0.1226,0.1227,0.1255,0.1202,0.1306,0.1315,0.1323,0.1368,0.1381,0.1228,0.1228,0.1227,0.1227,0,0.1086,0.1085,0.1085,0.1077,0.1078,0.1085,0.1084,0.1105,0.1131,0.1137,0.1193,0.1212,0.1243,0.1263,0.126,0.1324,0.1329,0.1314,0.1269,0.1338,0.1383,0.1395,0.1232,0.1231,0.123,0.123,0,0,0.1097,0.1084,0.1091,0.1096,0.1096,0.1096,0.1117,0.1132,0.1157,0.1191,0.1228,0.1276,0.1299,0.1308,0.1322,0.1363,0.1457,0.1369,0.137,0.14,0.1572,0.1431,0.1431,0.1465,0.1467,0.1468,0.1588,0,0.1108,0.1108,0.11,0.1118,0.112,0.1128,0.1145,0.1163,0.1189,0.1223,0.1259,0.13,0.131,0.1343,0.1387,0.1431,0.149,0.1426,0.1514,0.1517,0.1369,0.144,0.1243,0.1319,0.16,0.1602,0.1603,0,0.111,0.111,0.1127,0.114,0.1144,0.1161,0.1196,0.1208,0.1243,0.1267,0.1311,0.1333,0.1395,0.14,0.151,0.1474,0.1536,0.1572,0.1577,0.1428,0.1397,0.1294,0.133,0.1624,0.1622,0.1621,0.1619,0,0.1124,0.1134,0.1152,0.1155,0.1166,0.1193,0.1209,0.1238,0.125,0.1301,0.132,0.1386,0.1423,0.1506,0.1561,0.1561,0.1673,0.1678,0.1616,0.1608,0.1443,0.1414,0.1779,0.1779,0.1778,0.1778,0.1778,0,0.1131,0.115,0.1168,0.1177,0.1209,0.1216,0.1256,0.1275,0.1302,0.1316,0.135,0.1369,0.1455,0.1508,0.158,0.1611,0.1693,0.1627,0.1626,0.1456,0.1429,0.1684,0.1672,0.1783,0.1782,0.1781,0.178,0,0.114,0.1153,0.1173,0.1201,0.1217,0.1243,0.1271,0.1287,0.1315,0.1334,0.1351,0.1379,0.1439,0.1501,0.1622,0.161,0.1672,0.1672,0.1456,0.1425,0.1587,0.1576,0.1638,0.1634,0.163,0.1627,0.1625,0,0.1138,0.1151,0.119,0.1206,0.1227,0.1262,0.1279,0.1302,0.1303,0.133,0.1331,0.1379,0.1379,0.1454,0.1442,0.1505,0.162,0.1367,0.1313,0.1578,0.1572,0.1567,0.1561,0.115,0.1144,0.1139,0.1135,0,0.1127,0.1155,0.1168,0.12,0.1231,0.1245,0.1268,0.1261,0.1278,0.128,0.1277,0.128,0.1287,0.1193,0.1209,0.1237,0.1327,0.1264,0.1617,0.1182,0.1118,0.1112,0.1123,0.1091,0.1095,0.1098,0.1101,0.1102,0.112,0.1125,0.1148,0.1172,0.1208,0.1208,0.1189,0.1173,0.115,0.1084,0.1163,0.1044,0.1036,0.0892,0.0929,0.0933,0.1056,0.1019,0.1036,0.1058,0.0946,0.0875,0.0784,0.0786,0.0788,0.079,0.0792,0,0.1068,0.1086,0.1108,0.1117,0.1116,0.1174,0.1157,0.1078,0.0994,0.0926,0.0887,0.0659,0.0578,0.0605,0.0513,0.0554,0.0589,0.0567,0.0586,0.0626,0.0663,0.0533,0.0261,0.0261,0.026,0.026,0,0,0.1036,0.1022,0.1023,0.1004,0.1037,0.1003,0.0983,0.0859,0.0755,0.055,0.0403,0.0421,0.044,0.0267,0.0319,0.0267,0.0456,0.0259,0.0663,0.0716,0.0752,0.0881,0.072,0,0,0,0,0]},{"header":{"parameterUnit":"m.s-1","parameterCategory":2,"la1":30.2991,"la2":30.254,"lo1":-89.0895,"lo2":-89.0444,"dy":0.0017,"dx":0.0017,"nx":28,"ny":28,"refTime":"2024-10-22T03:00:00:Z","depth":"2","parameterNumber":3,"parameterNumberName":"V-component_of_CURRENTS"},"data":[0,0,0,0,0,0,0,0,0,0,0,0,0,0,0,0,0,0,0,0,0,0,0,0,0,0,0,0,0,0,0,0,0,0,0,0,0,0,0,0,0,0,0,0,0,0,0,0,0,0,0,0,0,0,0,0,0,0,0.0182,0.0182,0,0.0199,0.02,0.02,0.0162,0.0161,0.0159,0.0158,0.0117,0.0118,0.0118,0,0,0,0,0,0,0,0,0,0,0,0,0,0.0178,0.0178,0.0182,0.0182,0.0183,0.0199,0.02,0.02,0.0162,0.0161,0.0159,0.0157,0.0117,0.0118,0.0118,0,0,0,0,0,0,0,0,0,0,0,0,0,0.0188,0.0178,0.0182,0.0164,0.0163,0.0199,0.02,0.02,0.0163,0.0161,0.0159,0.0157,0.0117,0.0118,0.0118,0.0162,0,0,0.0119,0.0119,0,0,0,0,0,0,0,0,0.0187,0.0188,0.0167,0.0165,0.0164,0.0175,0.0183,0.0184,0.0163,0.0165,0.0158,0.0156,0.0131,0.0131,0.0142,0.016,0.0159,0.0119,0.0119,0.0119,0.0119,0,0,0,0,0,0,0,0.0187,0.0188,0.0191,0.0167,0.0165,0.0176,0.0174,0.0184,0.016,0.0165,0.0161,0.0161,0.013,0.0142,0.0141,0.0158,0.0119,0.0119,0.012,0.012,0.01,0.01,0,0,0,0,0,0,0.018,0.0187,0.0191,0.0192,0.0168,0.0177,0.0176,0.0175,0.0161,0.0157,0.0162,0.0159,0.0143,0.014,0.0139,0.0115,0.0119,0.012,0.012,0.0101,0.01,0.0099,0,0,0,0,0,0,0.018,0.018,0.019,0.0188,0.0189,0.0179,0.0179,0.0176,0.0156,0.016,0.0155,0.014,0.0141,0.0139,0.0117,0.0116,0.012,0.012,0.0102,0.0101,0.01,0.0115,0,0,0,0,0,0,0.0179,0.018,0.0172,0.0187,0.0189,0.0201,0.018,0.0178,0.016,0.0155,0.014,0.0136,0.0139,0.0116,0.0117,0.0116,0.012,0.0103,0.0101,0.01,0.0116,0.0115,0.0114,0,0,0,0,0,0.0179,0.0187,0.0172,0.0172,0.018,0.0201,0.0204,0.0191,0.0161,0.0162,0.0136,0.0135,0.0108,0.0116,0.0117,0.0117,0.0103,0.0102,0.01,0.0116,0.0115,0.0114,0,0,0,0,0,0,0.0183,0.0184,0.0167,0.0174,0.0177,0.0193,0.0191,0.0178,0.0163,0.0141,0.0134,0.0129,0.011,0.0107,0.0116,0.0103,0.0103,0.0102,0.0114,0.0113,0.0113,0.0136,0.0121,0,0,0,0,0,0.0179,0.0182,0.0184,0.0187,0.0183,0.0179,0.018,0.017,0.0162,0.0151,0.014,0.012,0.0114,0.0104,0.0102,0.0101,0.0113,0.0096,0.0095,0.0095,0.0112,0.0111,0.0112,0.0094,0.0094,0.0094,0,0,0.0182,0.0182,0.0183,0.0187,0.0183,0.0195,0.0174,0.017,0.0177,0.0151,0.0141,0.012,0.0111,0.0107,0.0098,0.0098,0.0108,0.0092,0.0093,0.011,0.0109,0.0111,0.0113,0.0093,0.0093,0.0093,0,0,0.0202,0.0184,0.0193,0.0194,0.0185,0.0191,0.0181,0.0179,0.0169,0.0162,0.0139,0.0118,0.0105,0.0109,0.0106,0.0101,0.0104,0.0079,0.0099,0.0097,0.01,0.0102,0.0134,0.0139,0.0079,0.0079,0.0079,0,0.0197,0.0211,0.02,0.0208,0.0209,0.0185,0.0196,0.0198,0.0187,0.0187,0.0153,0.0134,0.0118,0.0129,0.0115,0.0104,0.0104,0.0107,0.0099,0.0101,0.0103,0.0136,0.0141,0.008,0.008,0.008,0.008,0,0.0231,0.023,0.0234,0.0235,0.024,0.0243,0.0241,0.0235,0.0208,0.021,0.0196,0.0172,0.0159,0.0144,0.0126,0.0128,0.0126,0.01,0.0108,0.0106,0.014,0.0146,0.008,0.008,0.008,0.008,0,0,0.0241,0.0255,0.0251,0.0253,0.0248,0.0259,0.0268,0.0282,0.0285,0.0261,0.0271,0.0243,0.0211,0.0205,0.0174,0.017,0.0178,0.0131,0.013,0.0177,0.0189,0.025,0.0262,0.0135,0.0136,0.0136,0.0214,0,0.0261,0.029,0.029,0.0307,0.0317,0.0303,0.0318,0.0323,0.0315,0.032,0.0297,0.0281,0.024,0.0208,0.0203,0.0178,0.0189,0.0161,0.0173,0.0175,0.024,0.0269,0.0239,0.031,0.0219,0.022,0.0221,0,0.0288,0.0303,0.0327,0.034,0.034,0.034,0.0352,0.0361,0.037,0.0358,0.0346,0.0323,0.0313,0.0262,0.0259,0.0232,0.0215,0.0205,0.0206,0.0266,0.0245,0.0293,0.0323,0.0229,0.0229,0.0228,0.0228,0,0.0307,0.0326,0.0345,0.0347,0.0361,0.0355,0.035,0.036,0.0364,0.0364,0.0359,0.0359,0.0328,0.0318,0.029,0.0259,0.0299,0.0257,0.0317,0.0322,0.0306,0.0309,0.027,0.027,0.027,0.027,0.0269,0,0.0334,0.0342,0.0344,0.0351,0.0358,0.0353,0.0353,0.0356,0.0355,0.0362,0.0354,0.0364,0.0327,0.0343,0.0326,0.0357,0.0329,0.0348,0.0349,0.0312,0.0314,0.0241,0.0237,0.0273,0.0272,0.0271,0.0271,0,0.0347,0.0353,0.0369,0.0372,0.0363,0.0356,0.0332,0.0342,0.0331,0.0338,0.0328,0.0354,0.0378,0.0389,0.0388,0.04,0.0425,0.0439,0.0423,0.0422,0.0445,0.044,0.0529,0.0532,0.0534,0.0536,0.0538,0,0.036,0.037,0.0372,0.0369,0.0355,0.0338,0.0331,0.0319,0.0326,0.034,0.0352,0.038,0.0437,0.051,0.0522,0.0567,0.0503,0.0557,0.0503,0.0482,0.0473,0.0464,0.0456,0.0487,0.0488,0.0489,0.049,0,0.0381,0.0371,0.0386,0.0376,0.036,0.036,0.034,0.0347,0.034,0.0371,0.0422,0.0473,0.0533,0.0591,0.0646,0.0646,0.0553,0.0581,0.0552,0.0434,0.045,0.0439,0.043,0.0498,0.0497,0.0497,0.0496,0.0496,0.0384,0.0394,0.0401,0.0392,0.0377,0.0379,0.0384,0.0398,0.0434,0.0479,0.0519,0.0615,0.0638,0.0759,0.0702,0.0627,0.0672,0.0625,0.0617,0.061,0.06,0.062,0.0699,0.07,0.07,0.07,0.07,0,0.0406,0.0407,0.0413,0.042,0.0426,0.0385,0.0396,0.0421,0.0483,0.0548,0.0628,0.0715,0.0785,0.0741,0.0658,0.0647,0.0572,0.0586,0.0484,0.0481,0.0477,0.0452,0.0517,0.0515,0.0514,0.0513,0,0,0.042,0.0441,0.0452,0.0469,0.0449,0.045,0.0452,0.0488,0.0539,0.0633,0.0711,0.0878,0.0857,0.0768,0.0693,0.0575,0.051,0.0538,0.0704,0.0588,0.0582,0.0537,0.0504,0,0,0,0,0]}],[{"header":{"parameterUnit":"m.s-1","parameterCategory":2,"la1":30.2991,"la2":30.254,"lo1":-89.0895,"lo2":-89.0444,"dy":0.0017,"dx":0.0017,"nx":28,"ny":28,"refTime":"2024-10-22T03:00:00:Z","depth":"4","parameterNumber":2,"parameterNumberName":"U-component_of_CURRENTS"},"data":[0,0,0,0,0,0,0,0,0,0,0,0,0,0,0,0,0,0,0,0,0,0,0,0,0,0,0,0,0,0,0,0,0,0,0,0,0,0,0,0,0,0,0,0,0,0,0,0,0,0,0,0,0,0,0,0,0,0,-0.0322,-0.0322,0,-0.0303,-0.0303,-0.0303,-0.0293,-0.0293,-0.0293,-0.0293,-0.0263,-0.0262,-0.0261,0,0,0,0,0,0,0,0,0,0,0,0,0,-0.0362,-0.0361,-0.0322,-0.0322,-0.0322,-0.0303,-0.0303,-0.0303,-0.0293,-0.0293,-0.0293,-0.0293,-0.0263,-0.0262,-0.0261,0,0,0,0,0,0,0,0,0,0,0,0,0,-0.0343,-0.036,-0.0322,-0.0316,-0.0315,-0.0303,-0.0303,-0.0303,-0.0293,-0.0293,-0.0293,-0.0293,-0.0263,-0.0262,-0.0261,-0.025,0,0,-0.0257,-0.0256,0,0,0,0,0,0,0,0,-0.0344,-0.0341,-0.0317,-0.0316,-0.0315,-0.0302,-0.0306,-0.0285,-0.0293,-0.03,-0.0293,-0.0293,-0.0275,-0.0273,-0.0268,-0.0248,-0.0247,-0.0256,-0.0256,-0.0255,-0.0255,0,0,0,0,0,0,0,-0.0345,-0.0342,-0.0314,-0.0317,-0.0316,-0.0318,-0.0315,-0.0302,-0.0286,-0.0299,-0.0299,-0.0299,-0.0275,-0.0269,-0.0267,-0.0247,-0.0257,-0.0255,-0.0255,-0.0254,-0.02,-0.0199,0,0,0,0,0,0,-0.0349,-0.0343,-0.0314,-0.0313,-0.0331,-0.0317,-0.0314,-0.0305,-0.0286,-0.0284,-0.0298,-0.0298,-0.0271,-0.0268,-0.0266,-0.0239,-0.0255,-0.0254,-0.0253,-0.02,-0.02,-0.0199,0,0,0,0,0,0,-0.0349,-0.0346,-0.0315,-0.0329,-0.0326,-0.0316,-0.0306,-0.0304,-0.0302,-0.0286,-0.0283,-0.0298,-0.0271,-0.0268,-0.0253,-0.0238,-0.0253,-0.0252,-0.0201,-0.02,-0.0199,-0.0193,0,0,0,0,0,0,-0.035,-0.0346,-0.0348,-0.0329,-0.0325,-0.0311,-0.0306,-0.0304,-0.0302,-0.0301,-0.0285,-0.0282,-0.0271,-0.0255,-0.0252,-0.0236,-0.0251,-0.0202,-0.0201,-0.0199,-0.0194,-0.0192,-0.019,0,0,0,0,0,-0.0352,-0.0351,-0.0348,-0.0345,-0.0325,-0.0311,-0.0309,-0.0302,-0.0302,-0.0301,-0.0288,-0.0283,-0.0245,-0.0254,-0.025,-0.0234,-0.0202,-0.0201,-0.02,-0.0195,-0.0192,-0.019,0,0,0,0,0,0,-0.0369,-0.0349,-0.0346,-0.0339,-0.0328,-0.031,-0.0312,-0.0305,-0.0294,-0.0295,-0.0279,-0.0275,-0.0258,-0.0247,-0.0257,-0.0214,-0.0221,-0.0219,-0.0219,-0.0216,-0.0214,-0.0193,-0.025,0,0,0,0,0,-0.0374,-0.037,-0.0349,-0.0348,-0.0341,-0.0328,-0.0324,-0.0317,-0.0303,-0.0298,-0.0284,-0.0266,-0.0247,-0.0234,-0.0222,-0.0198,-0.019,-0.0183,-0.0181,-0.018,-0.0159,-0.0135,-0.0129,-0.0194,-0.0194,-0.0194,0,0,-0.0384,-0.0372,-0.0372,-0.0352,-0.0344,-0.0332,-0.0325,-0.0319,-0.031,-0.0296,-0.0282,-0.0266,-0.0243,-0.0218,-0.0207,-0.0206,-0.0163,-0.0178,-0.0177,-0.0157,-0.0133,-0.0127,-0.0121,-0.0193,-0.0193,-0.0193,0,0,-0.0395,-0.0386,-0.0384,-0.0373,-0.0359,-0.0346,-0.0344,-0.0323,-0.0316,-0.0298,-0.0284,-0.0256,-0.0232,-0.0203,-0.0187,-0.0166,-0.0161,-0.0163,-0.0126,-0.0103,-0.0098,-0.0092,-0.0102,-0.0098,-0.0153,-0.0153,-0.0153,0,-0.0406,-0.0395,-0.0383,-0.0374,-0.0366,-0.0351,-0.0342,-0.033,-0.0308,-0.0293,-0.0295,-0.0236,-0.0221,-0.0172,-0.0155,-0.016,-0.0155,-0.0139,-0.0101,-0.0095,-0.009,-0.0101,-0.0096,-0.0152,-0.0152,-0.0153,-0.0153,0,-0.0408,-0.0401,-0.0399,-0.038,-0.0371,-0.0362,-0.034,-0.033,-0.0316,-0.0293,-0.0252,-0.0221,-0.0173,-0.0169,-0.0149,-0.0096,-0.0109,-0.0111,-0.0108,-0.0083,-0.0096,-0.0091,-0.0152,-0.0152,-0.0152,-0.0152,0,0,-0.0412,-0.0402,-0.0399,-0.0394,-0.0371,-0.0361,-0.0347,-0.0317,-0.0295,-0.0267,-0.0228,-0.0177,-0.0141,-0.0117,-0.009,-0.0059,-0.0027,-0.0055,-0.0055,-0.0067,0.0007,-0.0045,-0.0045,-0.0018,-0.0016,-0.0015,-0.0028,0,-0.0412,-0.0403,-0.0395,-0.0384,-0.0373,-0.0358,-0.034,-0.0314,-0.0285,-0.0245,-0.0198,-0.015,-0.0127,-0.009,-0.0053,-0.0037,-0.0008,-0.0024,-0.0012,-0.0012,-0.0062,-0.0039,-0.001,-0.0025,-0.0024,-0.0023,-0.0022,0,-0.04,-0.0398,-0.0391,-0.0377,-0.037,-0.036,-0.0323,-0.0303,-0.0247,-0.0217,-0.0153,-0.0116,-0.005,-0.004,0.0015,0.0005,0.0024,0.0029,0.0029,-0.001,-0.0053,-0.0047,-0.0013,-0.0014,-0.0015,-0.0015,-0.0016,0,-0.0394,-0.0387,-0.0385,-0.038,-0.0363,-0.0354,-0.0335,-0.0289,-0.0262,-0.0184,-0.0155,-0.0078,-0.0042,0.0002,0.0015,0.0031,0.0044,0.0057,0.0024,0.0018,0.0065,0.006,0.0109,0.0109,0.0109,0.0109,0.011,0,-0.0379,-0.0377,-0.0382,-0.0378,-0.0366,-0.0349,-0.0314,-0.0283,-0.0228,-0.0193,-0.0125,-0.0096,-0.0024,-0.0014,0.0013,0.0014,0.0041,0.0041,0.0024,0.0062,0.0058,0.0066,0.0061,0.0109,0.0109,0.0109,0.0109,0,-0.0366,-0.037,-0.037,-0.0366,-0.0361,-0.0347,-0.0309,-0.0279,-0.0229,-0.0185,-0.0157,-0.0104,-0.0088,-0.0062,-0.0021,-0.0006,0.0005,-0.0001,0.0007,-0.0013,-0.0031,-0.0035,-0.0011,-0.0012,-0.0014,-0.0015,-0.0016,0,-0.036,-0.0359,-0.0366,-0.0365,-0.0363,-0.034,-0.0319,-0.0272,-0.0244,-0.0205,-0.0191,-0.0164,-0.0133,-0.0123,-0.0096,-0.0069,-0.0056,-0.005,0.0014,-0.0018,-0.0037,-0.0039,-0.0041,-0.0018,-0.0019,-0.0019,-0.0019,0,-0.0353,-0.0359,-0.0361,-0.0362,-0.0351,-0.0333,-0.0307,-0.0287,-0.0243,-0.0216,-0.0193,-0.0168,-0.0169,-0.0138,-0.0134,-0.0111,-0.0049,-0.0064,-0.0059,0.0002,-0.0027,-0.0045,-0.0045,-0.0024,-0.0024,-0.0023,-0.0023,0,-0.0351,-0.0351,-0.0357,-0.0353,-0.0348,-0.0329,-0.0309,-0.0282,-0.0249,-0.021,-0.0222,-0.02,-0.0184,-0.0165,-0.017,-0.0151,-0.0114,-0.0075,-0.0068,-0.0063,-0.0073,-0.0117,-0.0145,0,0,0,0,0,-0.0338,-0.0338,-0.0346,-0.034,-0.0338,-0.0332,-0.0308,-0.0287,-0.0265,-0.0241,-0.0219,-0.0216,-0.0193,-0.0192,-0.0175,-0.0197,-0.0126,-0.0178,-0.0081,-0.0051,-0.0046,-0.0052,0,0,0,0,0,0,-0.0332,-0.0335,-0.0343,-0.0336,-0.0332,-0.0318,-0.0302,-0.0284,-0.0263,-0.0245,-0.0232,-0.0214,-0.0197,-0.0204,-0.0177,-0.0176,-0.011,-0.0168,-0.0168,-0.0055,-0.0049,-0.0045,-0.005,0,0,0,0,0]},{"header":{"parameterUnit":"m.s-1","parameterCategory":2,"la1":30.2991,"la2":30.254,"lo1":-89.0895,"lo2":-89.0444,"dy":0.0017,"dx":0.0017,"nx":28,"ny":28,"refTime":"2024-10-22T03:00:00:Z","depth":"4","parameterNumber":3,"parameterNumberName":"V-component_of_CURRENTS"},"data":[0,0,0,0,0,0,0,0,0,0,0,0,0,0,0,0,0,0,0,0,0,0,0,0,0,0,0,0,0,0,0,0,0,0,0,0,0,0,0,0,0,0,0,0,0,0,0,0,0,0,0,0,0,0,0,0,0,0,0.049,0.049,0,0.0505,0.0505,0.0505,0.0521,0.0521,0.0522,0.0522,0.0533,0.0533,0.0533,0,0,0,0,0,0,0,0,0,0,0,0,0,0.0466,0.0466,0.049,0.049,0.049,0.0505,0.0505,0.0505,0.0521,0.0521,0.0522,0.0522,0.0533,0.0533,0.0533,0,0,0,0,0,0,0,0,0,0,0,0,0,0.0478,0.0466,0.049,0.05,0.0501,0.0505,0.0505,0.0505,0.0521,0.0521,0.0522,0.0522,0.0533,0.0533,0.0533,0.0526,0,0,0.0533,0.0533,0,0,0,0,0,0,0,0,0.0477,0.0479,0.0498,0.0499,0.0501,0.0512,0.0501,0.0512,0.0521,0.0513,0.0522,0.0522,0.0525,0.0526,0.0528,0.0527,0.0527,0.0533,0.0533,0.0533,0.0533,0,0,0,0,0,0,0,0.0476,0.0478,0.0495,0.0499,0.05,0.0501,0.0503,0.0503,0.0517,0.0514,0.0515,0.0517,0.0526,0.0528,0.0528,0.0527,0.0533,0.0533,0.0534,0.0534,0.055,0.055,0,0,0,0,0,0,0.0475,0.0477,0.0495,0.0496,0.049,0.0501,0.0504,0.0508,0.0517,0.0519,0.0517,0.0518,0.0527,0.0528,0.0529,0.0555,0.0533,0.0534,0.0534,0.055,0.055,0.0551,0,0,0,0,0,0,0.0474,0.0477,0.0494,0.0487,0.0489,0.0501,0.0506,0.0508,0.0517,0.0519,0.0521,0.0525,0.0528,0.0528,0.0537,0.0554,0.0534,0.0534,0.0549,0.055,0.055,0.0586,0,0,0,0,0,0,0.0474,0.0476,0.0481,0.0487,0.049,0.0496,0.0505,0.0508,0.0517,0.0519,0.0526,0.0527,0.0528,0.0537,0.0537,0.0554,0.0534,0.0549,0.0549,0.055,0.0584,0.0587,0.059,0,0,0,0,0,0.0473,0.0475,0.0481,0.0483,0.0495,0.0496,0.0498,0.0507,0.0517,0.0517,0.0529,0.0527,0.0542,0.0537,0.0537,0.0555,0.0548,0.0549,0.055,0.0583,0.0587,0.059,0,0,0,0,0,0,0.0466,0.0477,0.0484,0.0489,0.0493,0.0499,0.0504,0.051,0.0519,0.0525,0.053,0.0532,0.0548,0.0541,0.0536,0.0561,0.0545,0.0546,0.057,0.0574,0.0577,0.0571,0.0534,0,0,0,0,0,0.0467,0.0474,0.048,0.0486,0.049,0.0499,0.0503,0.0507,0.0515,0.052,0.0531,0.054,0.0549,0.0554,0.0559,0.0568,0.0549,0.0579,0.0582,0.0585,0.0579,0.0552,0.0552,0.0553,0.0553,0.0553,0,0,0.0464,0.0474,0.0476,0.0485,0.0493,0.0495,0.0502,0.0508,0.0516,0.0519,0.054,0.0551,0.0554,0.057,0.0577,0.0569,0.0579,0.0586,0.0589,0.0581,0.0553,0.0553,0.0553,0.0554,0.0554,0.0554,0,0,0.0461,0.0474,0.0477,0.048,0.0491,0.0496,0.0499,0.0511,0.0524,0.054,0.055,0.0565,0.0583,0.0588,0.0592,0.061,0.0597,0.0621,0.0632,0.0607,0.0606,0.0605,0.06,0.0598,0.0622,0.0622,0.0622,0,0.0459,0.0467,0.0476,0.0479,0.0485,0.0498,0.0499,0.0511,0.0526,0.054,0.055,0.0581,0.0588,0.0601,0.0618,0.0618,0.0607,0.062,0.061,0.0609,0.0607,0.0601,0.0599,0.0624,0.0624,0.0623,0.0623,0,0.0454,0.0463,0.0466,0.0478,0.0482,0.0487,0.05,0.0512,0.0537,0.0555,0.0583,0.0594,0.0613,0.0623,0.0632,0.0635,0.0633,0.0618,0.06,0.0609,0.0603,0.06,0.0626,0.0626,0.0625,0.0625,0,0,0.0447,0.0461,0.0464,0.047,0.0484,0.0486,0.05,0.052,0.0538,0.0563,0.0583,0.0615,0.0634,0.0638,0.0649,0.0634,0.0632,0.0631,0.0628,0.0625,0.0591,0.0571,0.0566,0.0615,0.0614,0.0614,0.0597,0,0.0445,0.045,0.046,0.0468,0.047,0.0485,0.0506,0.0525,0.0548,0.057,0.0589,0.0622,0.0636,0.0658,0.0643,0.0631,0.0622,0.0638,0.0582,0.0581,0.0561,0.0561,0.0611,0.0595,0.0594,0.0594,0.0593,0,0.044,0.0444,0.0455,0.0472,0.0478,0.0499,0.0526,0.0542,0.0573,0.0596,0.0616,0.0631,0.064,0.0642,0.0616,0.0627,0.0617,0.0601,0.0599,0.0561,0.0554,0.0579,0.0587,0.0588,0.0588,0.0589,0.0589,0,0.043,0.0441,0.0456,0.046,0.0483,0.051,0.0536,0.0568,0.0591,0.0621,0.0637,0.0639,0.0657,0.0622,0.0615,0.0614,0.0571,0.0559,0.053,0.0529,0.0537,0.0537,0.053,0.053,0.053,0.053,0.0531,0,0.0424,0.0431,0.0466,0.0472,0.0506,0.0527,0.0575,0.0593,0.0631,0.0651,0.0667,0.0663,0.0652,0.0631,0.0606,0.0563,0.0566,0.0528,0.0516,0.0556,0.0559,0.0536,0.0537,0.053,0.053,0.053,0.053,0,0.041,0.043,0.0443,0.0483,0.0506,0.0536,0.0607,0.0634,0.0674,0.0687,0.0702,0.0696,0.0667,0.0649,0.0599,0.0564,0.0516,0.0505,0.0568,0.0561,0.0493,0.0496,0.0451,0.045,0.0449,0.0449,0.0448,0,0.0398,0.0411,0.0453,0.0478,0.0511,0.0567,0.0612,0.0662,0.0674,0.0689,0.0679,0.068,0.0667,0.0588,0.0561,0.0513,0.0507,0.0485,0.047,0.0488,0.0481,0.0486,0.049,0.0447,0.0447,0.0446,0.0446,0,0.0375,0.0407,0.041,0.0479,0.0533,0.0568,0.0623,0.0629,0.0664,0.0696,0.066,0.0635,0.0604,0.0558,0.0548,0.0502,0.049,0.0476,0.0477,0.0462,0.0482,0.0477,0.0482,0.0443,0.0444,0.0444,0.0444,0,0.0355,0.0365,0.0407,0.0462,0.0525,0.0563,0.0582,0.06,0.0621,0.0631,0.0609,0.0597,0.0602,0.0551,0.0517,0.0496,0.0474,0.0443,0.0446,0.0449,0.0451,0.0476,0.042,0,0,0,0,0,0.0346,0.0371,0.0403,0.0457,0.0522,0.0572,0.0589,0.0598,0.0617,0.059,0.0606,0.0574,0.0534,0.0511,0.0485,0.0487,0.0466,0.0451,0.0431,0.0427,0.043,0.0431,0,0,0,0,0,0,0.0337,0.0368,0.0389,0.0459,0.0512,0.0576,0.0588,0.0585,0.0558,0.0573,0.0553,0.0566,0.053,0.0577,0.0495,0.0487,0.0462,0.0448,0.0446,0.0425,0.0428,0.0431,0.0433,0,0,0,0,0]}]]